| time (UTC) | temp C | wind direction | speed KPH | gust KPH | rain 1hr cm | rain 24hr cm | rain mn cm | humidity % | barometer mb |
| 20260906064542 | 22 | 53 | 1.6 | 0.0 | 0.00 | 0.00 | 0.03 | 37 | 1010.5 |
| 20260906064043 | 22 | 53 | 3.2 | 0.0 | 0.00 | 0.00 | 0.03 | 37 | 1010.4 |
| 20260906063546 | 22 | 53 | 3.2 | 0.0 | 0.00 | 0.00 | 0.03 | 37 | 1010.4 |
| 20260906063045 | 22 | 53 | 3.2 | 0.0 | 0.00 | 0.00 | 0.03 | 37 | 1010.4 |
| 20260906062541 | 22 | 49 | 1.6 | 0.0 | 0.00 | 0.00 | 0.03 | 36 | 1010.4 |
| 20260906062041 | 22 | 273 | 0.0 | 0.0 | 0.00 | 0.00 | 0.03 | 36 | 1010.4 |
| 20260906061541 | 22 | 273 | 1.6 | 0.0 | 0.00 | 0.00 | 0.03 | 37 | 1010.4 |
| 20260906061040 | 22 | 282 | 3.2 | 0.0 | 0.00 | 0.00 | 0.03 | 37 | 1010.6 |
| 20260906060541 | 23 | 279 | 3.2 | 0.0 | 0.00 | 0.00 | 0.03 | 37 | 1010.6 |
| 20260906060041 | 22 | 258 | 3.2 | 0.0 | 0.00 | 0.00 | 0.03 | 36 | 1010.6 |
| 20260906055541 | 22 | 266 | 4.8 | 0.0 | 0.00 | 0.00 | 0.03 | 37 | 1010.6 |
| 20260906055040 | 22 | 274 | 4.8 | 0.0 | 0.00 | 0.00 | 0.03 | 37 | 1010.6 |
| 20260906054558 | 22 | 279 | 3.2 | 0.0 | 0.00 | 0.00 | 0.03 | 37 | 1010.6 |
| 20260906054040 | 22 | 272 | 3.2 | 0.0 | 0.00 | 0.00 | 0.03 | 37 | 1010.9 |
| 20260906053538 | 22 | 305 | 4.8 | 0.0 | 0.00 | 0.00 | 0.03 | 37 | 1010.9 |
| 20260906053039 | 22 | 292 | 4.8 | 0.0 | 0.00 | 0.00 | 0.03 | 38 | 1010.9 |
| 20260906052539 | 22 | 296 | 4.8 | 0.0 | 0.00 | 0.00 | 0.03 | 39 | 1011.0 |
| 20260906052039 | 22 | 267 | 4.8 | 0.0 | 0.00 | 0.00 | 0.03 | 39 | 1011.0 |
| 20260906051538 | 22 | 242 | 4.8 | 0.0 | 0.00 | 0.00 | 0.03 | 39 | 1011.0 |
| 20260906051039 | 22 | 262 | 4.8 | 0.0 | 0.00 | 0.00 | 0.03 | 39 | 1011.2 |
| 20260906050541 | 22 | 279 | 4.8 | 0.0 | 0.00 | 0.00 | 0.03 | 39 | 1011.2 |
| 20260906050040 | 22 | 246 | 4.8 | 0.0 | 0.00 | 0.00 | 0.03 | 40 | 1011.2 |
| 20260906045539 | 22 | 248 | 3.2 | 0.0 | 0.00 | 0.00 | 0.03 | 40 | 1011.2 |
| 20260906045038 | 22 | 262 | 3.2 | 0.0 | 0.00 | 0.00 | 0.03 | 40 | 1011.2 |
| 20260906044538 | 21 | 266 | 3.2 | 0.0 | 0.00 | 0.00 | 0.03 | 40 | 1011.2 |
| 20260906044039 | 21 | 294 | 3.2 | 0.0 | 0.00 | 0.00 | 0.03 | 40 | 1011.2 |
| 20260906043537 | 21 | 273 | 3.2 | 0.0 | 0.00 | 0.00 | 0.03 | 41 | 1011.2 |
| 20260906043037 | 21 | 281 | 3.2 | 0.0 | 0.00 | 0.00 | 0.03 | 41 | 1011.2 |
| 20260906042537 | 21 | 290 | 3.2 | 0.0 | 0.00 | 0.00 | 0.03 | 42 | 1011.1 |
| 20260906042037 | 21 | 277 | 3.2 | 0.0 | 0.00 | 0.00 | 0.03 | 42 | 1011.1 |
| 20260906041536 | 21 | 304 | 3.2 | 0.0 | 0.00 | 0.00 | 0.03 | 42 | 1011.1 |
| 20260906041038 | 21 | 270 | 3.2 | 0.0 | 0.00 | 0.00 | 0.03 | 42 | 1010.9 |
| 20260906040537 | 21 | 286 | 3.2 | 0.0 | 0.00 | 0.00 | 0.03 | 44 | 1010.9 |
| 20260906040045 | 22 | 277 | 1.6 | 0.0 | 0.00 | 0.00 | 0.03 | 43 | 1010.9 |
| 20260906035537 | 22 | 276 | 1.6 | 0.0 | 0.00 | 0.00 | 0.03 | 41 | 1010.8 |
| 20260906035036 | 22 | 277 | 1.6 | 0.0 | 0.00 | 0.00 | 0.03 | 40 | 1010.8 |
| 20260906034547 | 22 | 274 | 1.6 | 0.0 | 0.00 | 0.00 | 0.03 | 39 | 1010.8 |
| 20260906034035 | 22 | 260 | 1.6 | 0.0 | 0.00 | 0.00 | 0.03 | 38 | 1010.8 |
| 20260906033535 | 22 | 266 | 1.6 | 0.0 | 0.00 | 0.00 | 0.03 | 39 | 1010.8 |
| 20260906033035 | 22 | 301 | 1.6 | 0.0 | 0.00 | 0.00 | 0.03 | 39 | 1010.8 |
| 20260906032537 | 22 | 269 | 0.0 | 0.0 | 0.00 | 0.00 | 0.03 | 38 | 1010.7 |
| 20260906032035 | 22 | 295 | 0.0 | 0.0 | 0.00 | 0.00 | 0.03 | 39 | 1010.7 |
| 20260906031601 | 22 | 295 | 0.0 | 0.0 | 0.00 | 0.00 | 0.03 | 39 | 1010.7 |
| 20260906031039 | 22 | 295 | 1.6 | 0.0 | 0.00 | 0.00 | 0.03 | 39 | 1010.7 |
| 20260906030535 | 22 | 278 | 1.6 | 0.0 | 0.00 | 0.00 | 0.03 | 38 | 1010.7 |
| 20260906030035 | 22 | 297 | 1.6 | 0.0 | 0.00 | 0.00 | 0.03 | 38 | 1010.7 |
| 20260906025534 | 22 | 250 | 1.6 | 0.0 | 0.00 | 0.00 | 0.03 | 39 | 1010.5 |
| 20260906025034 | 22 | 270 | 1.6 | 0.0 | 0.00 | 0.00 | 0.03 | 40 | 1010.5 |
| 20260906024553 | 22 | 277 | 3.2 | 0.0 | 0.00 | 0.00 | 0.03 | 41 | 1010.5 |
| 20260906024035 | 22 | 297 | 3.2 | 0.0 | 0.00 | 0.00 | 0.03 | 43 | 1010.6 |
| 20260906023532 | 22 | 236 | 4.8 | 0.0 | 0.00 | 0.00 | 0.03 | 44 | 1010.6 |
| 20260906023036 | 22 | 234 | 4.8 | 0.0 | 0.00 | 0.00 | 0.03 | 44 | 1010.6 |
| 20260906022531 | 22 | 278 | 4.8 | 0.0 | 0.00 | 0.00 | 0.03 | 46 | 1010.7 |
| 20260906022031 | 22 | 291 | 3.2 | 0.0 | 0.00 | 0.00 | 0.03 | 48 | 1010.7 |
| 20260906021531 | 22 | 255 | 3.2 | 0.0 | 0.00 | 0.00 | 0.03 | 54 | 1010.7 |
| 20260906021029 | 22 | 237 | 3.2 | 0.0 | 0.00 | 0.00 | 0.03 | 55 | 1010.9 |
| 20260906020534 | 22 | 260 | 1.6 | 0.0 | 0.00 | 0.00 | 0.03 | 56 | 1010.9 |
| 20260906020029 | 22 | 274 | 1.6 | 0.0 | 0.00 | 0.00 | 0.03 | 59 | 1010.9 |
| 20260906015530 | 22 | 202 | 3.2 | 0.0 | 0.00 | 0.00 | 0.03 | 62 | 1010.8 |
| 20260906015029 | 22 | 184 | 3.2 | 0.0 | 0.00 | 0.00 | 0.03 | 63 | 1010.8 |
| 20260906014529 | 22 | 226 | 3.2 | 0.0 | 0.00 | 0.00 | 0.03 | 64 | 1010.8 |
| 20260906014029 | 22 | 201 | 3.2 | 0.0 | 0.00 | 0.00 | 0.03 | 66 | 1010.8 |
| 20260906013528 | 22 | 199 | 3.2 | 0.0 | 0.00 | 0.00 | 0.03 | 64 | 1010.8 |
| 20260906013028 | 22 | 205 | 4.8 | 0.0 | 0.00 | 0.00 | 0.03 | 63 | 1010.8 |
| 20260906012528 | 23 | 207 | 4.8 | 0.0 | 0.00 | 0.00 | 0.03 | 67 | 1010.6 |
| 20260906012028 | 23 | 238 | 4.8 | 0.0 | 0.00 | 0.00 | 0.03 | 65 | 1010.6 |
| 20260906011529 | 24 | 259 | 3.2 | 0.0 | 0.00 | 0.00 | 0.03 | 61 | 1010.6 |
| 20260906011028 | 24 | 209 | 1.6 | 0.0 | 0.00 | 0.00 | 0.03 | 58 | 1010.5 |
| 20260906010529 | 24 | 187 | 1.6 | 0.0 | 0.00 | 0.00 | 0.03 | 56 | 1010.5 |
| 20260906010043 | 23 | 294 | 3.2 | 0.0 | 0.00 | 0.00 | 0.03 | 59 | 1010.5 |
| 20260906005527 | 23 | 260 | 3.2 | 0.0 | 0.00 | 0.00 | 0.03 | 64 | 1010.7 |
| 20260906005028 | 23 | 215 | 3.2 | 0.0 | 0.00 | 0.00 | 0.03 | 66 | 1010.7 |
| 20260906004526 | 24 | 235 | 3.2 | 0.0 | 0.00 | 0.00 | 0.03 | 65 | 1010.7 |
| 20260906004026 | 24 | 178 | 3.2 | 0.0 | 0.00 | 0.00 | 0.03 | 66 | 1010.6 |
| 20260906003527 | 24 | 213 | 1.6 | 0.0 | 0.00 | 0.00 | 0.03 | 66 | 1010.6 |
| 20260906003027 | 24 | 194 | 3.2 | 0.0 | 0.00 | 0.00 | 0.03 | 63 | 1010.6 |
| 20260906002527 | 25 | 148 | 3.2 | 0.0 | 0.00 | 0.00 | 0.03 | 63 | 1010.5 |
| 20260906002026 | 25 | 173 | 3.2 | 0.0 | 0.00 | 0.00 | 0.03 | 64 | 1010.5 |
| 20260906001533 | 25 | 167 | 3.2 | 0.0 | 0.00 | 0.00 | 0.03 | 62 | 1010.5 |
| 20260906001026 | 25 | 179 | 3.2 | 0.0 | 0.00 | 0.00 | 0.03 | 60 | 1010.5 |
| 20260906000526 | 25 | 166 | 3.2 | 0.0 | 0.00 | 0.00 | 0.03 | 58 | 1010.5 |
| 20260906000026 | 25 | 172 | 3.2 | 0.0 | 0.00 | 0.00 | 0.03 | 57 | 1010.5 |
| 20260905235526 | 25 | 170 | 3.2 | 0.0 | 0.00 | 0.00 | 0.03 | 55 | 1010.6 |
| 20260905235028 | 25 | 215 | 3.2 | 0.0 | 0.00 | 0.00 | 0.03 | 58 | 1010.6 |
| 20260905234525 | 26 | 154 | 4.8 | 0.0 | 0.00 | 0.00 | 0.03 | 56 | 1010.6 |
| 20260905234025 | 26 | 205 | 4.8 | 0.0 | 0.00 | 0.00 | 0.03 | 52 | 1010.7 |
| 20260905233525 | 25 | 170 | 4.8 | 0.0 | 0.00 | 0.00 | 0.03 | 53 | 1010.7 |
| 20260905233025 | 25 | 181 | 4.8 | 0.0 | 0.00 | 0.00 | 0.03 | 51 | 1010.7 |
| 20260905232525 | 25 | 207 | 4.8 | 0.0 | 0.00 | 0.00 | 0.03 | 54 | 1010.5 |
| 20260905232025 | 26 | 183 | 4.8 | 0.0 | 0.00 | 0.00 | 0.03 | 55 | 1010.5 |
| 20260905231525 | 26 | 173 | 3.2 | 0.0 | 0.00 | 0.00 | 0.03 | 53 | 1010.5 |
| 20260905231025 | 26 | 141 | 3.2 | 0.0 | 0.00 | 0.00 | 0.03 | 52 | 1010.6 |
| 20260905230524 | 26 | 186 | 3.2 | 0.0 | 0.00 | 0.00 | 0.03 | 50 | 1010.6 |
| 20260905230031 | 26 | 176 | 3.2 | 0.0 | 0.00 | 0.00 | 0.03 | 53 | 1010.6 |
| 20260905225526 | 26 | 169 | 3.2 | 0.0 | 0.00 | 0.00 | 0.03 | 51 | 1010.7 |
| 20260905225023 | 26 | 144 | 3.2 | 0.0 | 0.00 | 0.00 | 0.03 | 57 | 1010.7 |
| 20260905224523 | 26 | 148 | 4.8 | 0.0 | 0.00 | 0.00 | 0.03 | 51 | 1010.7 |
| 20260905224022 | 27 | 182 | 3.2 | 0.0 | 0.00 | 0.00 | 0.03 | 51 | 1010.9 |
| 20260905223522 | 26 | 169 | 3.2 | 0.0 | 0.00 | 0.00 | 0.03 | 50 | 1010.9 |
| 20260905223021 | 26 | 206 | 3.2 | 0.0 | 0.00 | 0.00 | 0.03 | 49 | 1010.9 |
| 20260905222522 | 26 | 170 | 3.2 | 0.0 | 0.00 | 0.00 | 0.03 | 51 | 1011.1 |
| 20260905222021 | 26 | 195 | 3.2 | 0.0 | 0.00 | 0.00 | 0.03 | 51 | 1011.1 |
| 20260905221520 | 26 | 152 | 3.2 | 0.0 | 0.00 | 0.00 | 0.03 | 49 | 1011.1 |
| 20260905221021 | 26 | 169 | 3.2 | 0.0 | 0.00 | 0.00 | 0.03 | 58 | 1011.1 |
| 20260905220520 | 26 | 174 | 4.8 | 0.0 | 0.00 | 0.00 | 0.03 | 56 | 1011.1 |
| 20260905220023 | 26 | 182 | 4.8 | 0.0 | 0.00 | 0.00 | 0.03 | 55 | 1011.1 |
| 20260905215520 | 26 | 170 | 4.8 | 0.0 | 0.00 | 0.00 | 0.03 | 61 | 1011.1 |
| 20260905215020 | 26 | 155 | 4.8 | 0.0 | 0.00 | 0.00 | 0.03 | 61 | 1011.1 |
| 20260905214519 | 26 | 360 | 3.2 | 0.0 | 0.00 | 0.00 | 0.03 | 49 | 1011.1 |
| 20260905214018 | 26 | 212 | 3.2 | 0.0 | 0.00 | 0.00 | 0.03 | 55 | 1011.4 |
| 20260905213517 | 26 | 201 | 4.8 | 0.0 | 0.00 | 0.00 | 0.03 | 61 | 1011.4 |
| 20260905213016 | 26 | 206 | 4.8 | 0.0 | 0.00 | 0.00 | 0.03 | 59 | 1011.4 |
| 20260905212515 | 26 | 133 | 4.8 | 0.0 | 0.00 | 0.00 | 0.03 | 61 | 1011.5 |
| 20260905212013 | 25 | 172 | 4.8 | 0.0 | 0.00 | 0.00 | 0.03 | 60 | 1011.5 |
| 20260905211539 | 25 | 157 | 4.8 | 0.0 | 0.00 | 0.00 | 0.03 | 60 | 1011.5 |
| 20260905211014 | 25 | 206 | 4.8 | 0.0 | 0.00 | 0.00 | 0.03 | 61 | 1011.6 |
| 20260905210514 | 25 | 161 | 4.8 | 0.0 | 0.00 | 0.00 | 0.03 | 64 | 1011.6 |
| 20260905210013 | 25 | 177 | 3.2 | 0.0 | 0.00 | 0.00 | 0.03 | 66 | 1011.6 |
| 20260905205513 | 25 | 211 | 3.2 | 0.0 | 0.00 | 0.00 | 0.03 | 65 | 1011.7 |
| 20260905205013 | 25 | 143 | 3.2 | 0.0 | 0.00 | 0.00 | 0.03 | 67 | 1011.7 |
| 20260905204512 | 25 | 169 | 4.8 | 0.0 | 0.00 | 0.00 | 0.03 | 69 | 1011.7 |
| 20260905204015 | 25 | 176 | 4.8 | 0.0 | 0.00 | 0.00 | 0.03 | 70 | 1011.7 |
| 20260905203511 | 25 | 153 | 4.8 | 0.0 | 0.00 | 0.00 | 0.03 | 70 | 1011.7 |
| 20260905203011 | 25 | 165 | 3.2 | 0.0 | 0.00 | 0.00 | 0.03 | 68 | 1011.7 |
| 20260905202510 | 25 | 157 | 3.2 | 0.0 | 0.00 | 0.00 | 0.03 | 67 | 1011.8 |
| 20260905202009 | 25 | 107 | 3.2 | 0.0 | 0.00 | 0.00 | 0.03 | 69 | 1011.8 |
| 20260905201509 | 24 | 238 | 4.8 | 0.0 | 0.00 | 0.00 | 0.03 | 70 | 1011.8 |
| 20260905201008 | 23 | 166 | 3.2 | 0.0 | 0.00 | 0.00 | 0.03 | 72 | 1012.3 |
| 20260905200510 | 23 | 229 | 3.2 | 0.0 | 0.00 | 0.00 | 0.03 | 69 | 1012.3 |
| 20260905200009 | 23 | 206 | 4.8 | 0.0 | 0.00 | 0.00 | 0.03 | 74 | 1012.3 |
| 20260905195507 | 23 | 211 | 4.8 | 0.0 | 0.00 | 0.00 | 0.03 | 76 | 1012.4 |
| 20260905195009 | 23 | 219 | 4.8 | 0.0 | 0.00 | 0.00 | 0.03 | 76 | 1012.4 |
| 20260905194507 | 23 | 167 | 3.2 | 0.0 | 0.00 | 0.00 | 0.03 | 76 | 1012.4 |
| 20260905194007 | 23 | 155 | 3.2 | 0.0 | 0.00 | 0.00 | 0.03 | 77 | 1012.6 |
| 20260905193506 | 23 | 210 | 4.8 | 0.0 | 0.00 | 0.00 | 0.03 | 75 | 1012.6 |
| 20260905193006 | 23 | 194 | 4.8 | 0.0 | 0.00 | 0.00 | 0.03 | 73 | 1012.6 |
| 20260905192506 | 24 | 175 | 4.8 | 0.0 | 0.00 | 0.00 | 0.03 | 74 | 1012.5 |
| 20260905192006 | 24 | 200 | 4.8 | 0.0 | 0.00 | 0.00 | 0.03 | 73 | 1012.5 |
| 20260905191507 | 25 | 149 | 3.2 | 0.0 | 0.00 | 0.00 | 0.03 | 72 | 1012.5 |
| 20260905191006 | 25 | 158 | 3.2 | 0.0 | 0.00 | 0.00 | 0.03 | 71 | 1012.6 |
| 20260905190505 | 25 | 158 | 3.2 | 0.0 | 0.00 | 0.00 | 0.03 | 72 | 1012.6 |
| 20260905190006 | 25 | 168 | 3.2 | 0.0 | 0.00 | 0.00 | 0.03 | 70 | 1012.6 |
| 20260905185505 | 25 | 194 | 3.2 | 0.0 | 0.00 | 0.00 | 0.03 | 72 | 1012.8 |
| 20260905185005 | 25 | 157 | 3.2 | 0.0 | 0.00 | 0.00 | 0.03 | 69 | 1012.8 |
| 20260905184502 | 25 | 116 | 1.6 | 0.0 | 0.00 | 0.00 | 0.03 | 70 | 1012.8 |
| 20260905184002 | 23 | 136 | 1.6 | 0.0 | 0.00 | 0.00 | 0.03 | 61 | 1012.8 |
| 20260905183600 | 23 | 360 | 1.6 | 0.0 | 0.00 | 0.00 | 0.03 | 77 | 1012.8 |
| 20260905183059 | 23 | 186 | 1.6 | 0.0 | 0.00 | 0.00 | 0.03 | 78 | 1012.8 |
| 20260905182558 | 23 | 139 | 3.2 | 0.0 | 0.00 | 0.00 | 0.03 | 79 | 1012.9 |
| 20260905182057 | 23 | 190 | 3.2 | 0.0 | 0.00 | 0.00 | 0.03 | 79 | 1012.9 |
| 20260905181557 | 23 | 215 | 3.2 | 0.0 | 0.00 | 0.00 | 0.03 | 79 | 1012.9 |
| 20260905181056 | 23 | 192 | 3.2 | 0.0 | 0.00 | 0.00 | 0.03 | 79 | 1012.9 |
| 20260905180557 | 23 | 157 | 3.2 | 0.0 | 0.00 | 0.00 | 0.03 | 78 | 1012.9 |
| 20260905180103 | 23 | 197 | 3.2 | 0.0 | 0.00 | 0.00 | 0.03 | 79 | 1012.9 |
| 20260905175559 | 23 | 157 | 3.2 | 0.0 | 0.00 | 0.00 | 0.03 | 78 | 1012.9 |
| 20260905175055 | 23 | 159 | 3.2 | 0.0 | 0.00 | 0.00 | 0.03 | 79 | 1012.9 |
| 20260905174555 | 22 | 207 | 3.2 | 0.0 | 0.00 | 0.00 | 0.03 | 78 | 1012.9 |
| 20260905174054 | 22 | 187 | 3.2 | 0.0 | 0.00 | 0.00 | 0.03 | 81 | 1012.7 |
| 20260905173551 | 22 | 127 | 1.6 | 0.0 | 0.00 | 0.00 | 0.03 | 80 | 1012.7 |
| 20260905173100 | 22 | 176 | 1.6 | 0.0 | 0.00 | 0.00 | 0.03 | 81 | 1012.7 |
| 20260905172550 | 22 | 223 | 3.2 | 0.0 | 0.00 | 0.00 | 0.03 | 81 | 1012.7 |
| 20260905172050 | 21 | 190 | 3.2 | 0.0 | 0.00 | 0.00 | 0.03 | 82 | 1012.7 |
| 20260905171547 | 21 | 144 | 1.6 | 0.0 | 0.00 | 0.00 | 0.03 | 81 | 1012.7 |
| 20260905171046 | 21 | 217 | 1.6 | 0.0 | 0.00 | 0.00 | 0.03 | 83 | 1012.9 |
| 20260905170546 | 21 | 163 | 3.2 | 0.0 | 0.00 | 0.00 | 0.03 | 83 | 1012.9 |
| 20260905170045 | 21 | 155 | 3.2 | 0.0 | 0.00 | 0.00 | 0.03 | 83 | 1012.9 |
| 20260905165544 | 21 | 153 | 3.2 | 0.0 | 0.00 | 0.00 | 0.03 | 83 | 1012.8 |
| 20260905165045 | 21 | 181 | 1.6 | 0.0 | 0.00 | 0.00 | 0.03 | 85 | 1012.8 |
| 20260905164543 | 21 | 188 | 1.6 | 0.0 | 0.00 | 0.00 | 0.03 | 85 | 1012.8 |
| 20260905164040 | 21 | 161 | 1.6 | 0.0 | 0.00 | 0.00 | 0.03 | 86 | 1012.6 |
| 20260905163540 | 20 | 146 | 1.6 | 0.0 | 0.00 | 0.00 | 0.03 | 86 | 1012.6 |
| 20260905163040 | 20 | 198 | 1.6 | 0.0 | 0.00 | 0.00 | 0.03 | 87 | 1012.6 |
| 20260905162540 | 20 | 168 | 1.6 | 0.0 | 0.00 | 0.00 | 0.03 | 87 | 1012.5 |
| 20260905162038 | 20 | 159 | 1.6 | 0.0 | 0.00 | 0.00 | 0.03 | 88 | 1012.5 |
| 20260905161537 | 20 | 188 | 1.6 | 0.0 | 0.00 | 0.00 | 0.03 | 89 | 1012.5 |
| 20260905161036 | 20 | 127 | 1.6 | 0.0 | 0.00 | 0.00 | 0.03 | 89 | 1012.5 |
| 20260905160534 | 20 | 150 | 0.0 | 0.0 | 0.00 | 0.00 | 0.03 | 90 | 1012.5 |
| 20260905160035 | 19 | 186 | 0.0 | 0.0 | 0.00 | 0.00 | 0.03 | 91 | 1012.5 |
| 20260905155533 | 19 | 186 | 0.0 | 0.0 | 0.00 | 0.00 | 0.03 | 92 | 1012.6 |
| 20260905155032 | 18 | 194 | 1.6 | 0.0 | 0.00 | 0.00 | 0.03 | 92 | 1012.6 |
| 20260905154534 | 18 | 107 | 1.6 | 0.0 | 0.00 | 0.00 | 0.03 | 92 | 1012.6 |
| 20260905154032 | 18 | 44 | 1.6 | 0.0 | 0.00 | 0.00 | 0.03 | 93 | 1012.5 |
| 20260905153527 | 18 | 78 | 3.2 | 0.0 | 0.00 | 0.00 | 0.03 | 94 | 1012.5 |
| 20260905153026 | 17 | 86 | 3.2 | 0.0 | 0.00 | 0.00 | 0.03 | 95 | 1012.5 |
| 20260905152525 | 17 | 355 | 4.8 | 0.0 | 0.00 | 0.00 | 0.03 | 96 | 1012.2 |
| 20260905152027 | 17 | 46 | 4.8 | 0.0 | 0.00 | 0.00 | 0.03 | 96 | 1012.2 |
| 20260905151523 | 17 | 11 | 4.8 | 0.0 | 0.00 | 0.00 | 0.03 | 97 | 1012.2 |
| 20260905151023 | 17 | 355 | 3.2 | 0.0 | 0.00 | 0.00 | 0.03 | 97 | 1012.2 |
| 20260905150521 | 17 | 20 | 4.8 | 0.0 | 0.00 | 0.00 | 0.03 | 97 | 1012.2 |
| 20260905150021 | 16 | 20 | 4.8 | 0.0 | 0.00 | 0.00 | 0.03 | 97 | 1012.2 |
| 20260905145522 | 16 | 14 | 3.2 | 0.0 | 0.00 | 0.00 | 0.03 | 97 | 1012.3 |
| 20260905145020 | 16 | 12 | 3.2 | 0.0 | 0.00 | 0.00 | 0.03 | 97 | 1012.3 |
| 20260905144519 | 16 | 5 | 1.6 | 0.0 | 0.00 | 0.00 | 0.03 | 97 | 1012.3 |
| 20260905144018 | 16 | 71 | 0.0 | 0.0 | 0.00 | 0.00 | 0.03 | 97 | 1012.3 |
| 20260905143519 | 16 | 72 | 0.0 | 0.0 | 0.00 | 0.00 | 0.03 | 97 | 1012.3 |
| 20260905143022 | 16 | 72 | 0.0 | 0.0 | 0.00 | 0.00 | 0.03 | 97 | 1012.3 |
| 20260905142518 | 15 | 72 | 0.0 | 0.0 | 0.00 | 0.00 | 0.03 | 97 | 1012.2 |
| 20260905142021 | 15 | 71 | 0.0 | 0.0 | 0.00 | 0.00 | 0.03 | 97 | 1012.2 |
| 20260905141525 | 15 | 71 | 0.0 | 0.0 | 0.00 | 0.00 | 0.03 | 97 | 1012.2 |
| 20260905141021 | 15 | 71 | 0.0 | 0.0 | 0.00 | 0.00 | 0.03 | 97 | 1011.9 |
| 20260905140520 | 15 | 72 | 0.0 | 0.0 | 0.00 | 0.00 | 0.03 | 97 | 1011.9 |
| 20260905140018 | 15 | 72 | 0.0 | 0.0 | 0.00 | 0.00 | 0.03 | 97 | 1011.9 |
| 20260905135517 | 15 | 71 | 0.0 | 0.0 | 0.00 | 0.00 | 0.03 | 97 | 1011.7 |
| 20260905135017 | 15 | 71 | 0.0 | 0.0 | 0.00 | 0.00 | 0.03 | 97 | 1011.7 |
| 20260905134517 | 15 | 72 | 0.0 | 0.0 | 0.00 | 0.00 | 0.03 | 97 | 1011.7 |
| 20260905134019 | 15 | 72 | 0.0 | 0.0 | 0.00 | 0.00 | 0.03 | 97 | 1011.5 |
| 20260905133516 | 15 | 72 | 0.0 | 0.0 | 0.00 | 0.00 | 0.03 | 97 | 1011.5 |
| 20260905133016 | 15 | 71 | 0.0 | 0.0 | 0.00 | 0.00 | 0.03 | 97 | 1011.5 |
| 20260905132517 | 15 | 71 | 0.0 | 0.0 | 0.00 | 0.00 | 0.03 | 97 | 1011.7 |
| 20260905132017 | 15 | 72 | 0.0 | 0.0 | 0.00 | 0.00 | 0.03 | 97 | 1011.7 |
| 20260905131519 | 15 | 72 | 0.0 | 0.0 | 0.00 | 0.00 | 0.03 | 97 | 1011.7 |
| 20260905131015 | 15 | 71 | 0.0 | 0.0 | 0.00 | 0.00 | 0.03 | 97 | 1011.2 |
| 20260905130515 | 15 | 71 | 0.0 | 0.0 | 0.00 | 0.00 | 0.03 | 97 | 1011.2 |
| 20260905130014 | 15 | 72 | 0.0 | 0.0 | 0.00 | 0.00 | 0.03 | 97 | 1011.2 |
| 20260905125514 | 15 | 71 | 0.0 | 0.0 | 0.00 | 0.00 | 0.03 | 97 | 1011.2 |
| 20260905125015 | 15 | 71 | 0.0 | 0.0 | 0.00 | 0.00 | 0.03 | 97 | 1011.2 |
| 20260905124517 | 15 | 72 | 0.0 | 0.0 | 0.00 | 0.00 | 0.03 | 97 | 1011.2 |
| 20260905124015 | 15 | 71 | 0.0 | 0.0 | 0.00 | 0.00 | 0.03 | 97 | 1011.1 |
| 20260905123514 | 15 | 71 | 0.0 | 0.0 | 0.00 | 0.00 | 0.03 | 97 | 1011.1 |
| 20260905123012 | 15 | 72 | 0.0 | 0.0 | 0.00 | 0.00 | 0.03 | 97 | 1011.1 |
| 20260905122512 | 15 | 71 | 0.0 | 0.0 | 0.00 | 0.00 | 0.03 | 97 | 1011.1 |
| 20260905122012 | 15 | 71 | 0.0 | 0.0 | 0.00 | 0.00 | 0.03 | 97 | 1011.1 |
| 20260905121512 | 15 | 71 | 0.0 | 0.0 | 0.00 | 0.00 | 0.03 | 97 | 1011.1 |
| 20260905121011 | 15 | 72 | 0.0 | 0.0 | 0.00 | 0.00 | 0.03 | 97 | 1011.1 |
| 20260905120514 | 15 | 72 | 0.0 | 0.0 | 0.00 | 0.00 | 0.03 | 96 | 1011.1 |
| 20260905120009 | 15 | 71 | 0.0 | 0.0 | 0.00 | 0.00 | 0.03 | 96 | 1011.1 |
| 20260905115509 | 15 | 71 | 0.0 | 0.0 | 0.00 | 0.00 | 0.03 | 97 | 1011.0 |
| 20260905115012 | 16 | 72 | 0.0 | 0.0 | 0.00 | 0.00 | 0.03 | 97 | 1011.0 |
| 20260905114510 | 16 | 71 | 0.0 | 0.0 | 0.00 | 0.00 | 0.03 | 97 | 1011.0 |
| 20260905114008 | 16 | 71 | 0.0 | 0.0 | 0.00 | 0.00 | 0.03 | 97 | 1011.0 |
| 20260905113509 | 16 | 72 | 0.0 | 0.0 | 0.00 | 0.00 | 0.03 | 97 | 1011.0 |
| 20260905113008 | 16 | 79 | 0.0 | 0.0 | 0.00 | 0.00 | 0.03 | 97 | 1011.0 |
| 20260905112509 | 16 | 79 | 0.0 | 0.0 | 0.00 | 0.00 | 0.03 | 97 | 1011.0 |
| 20260905112007 | 16 | 79 | 0.0 | 0.0 | 0.00 | 0.00 | 0.03 | 97 | 1011.0 |
| 20260905111508 | 15 | 79 | 0.0 | 0.0 | 0.00 | 0.00 | 0.00 | 97 | 1011.0 |
| 20260905111007 | 15 | 79 | 0.0 | 0.0 | 0.00 | 0.00 | 0.00 | 97 | 1011.3 |
| 20260905110506 | 15 | 79 | 0.0 | 0.0 | 0.00 | 0.00 | 0.00 | 97 | 1011.3 |
| 20260905110007 | 15 | 79 | 0.0 | 0.0 | 0.00 | 0.00 | 0.00 | 97 | 1011.3 |
| 20260905105507 | 15 | 79 | 0.0 | 0.0 | 0.00 | 0.00 | 0.00 | 97 | 1011.3 |
| 20260905105008 | 15 | 79 | 0.0 | 0.0 | 0.00 | 0.00 | 0.00 | 96 | 1011.3 |
| 20260905104506 | 15 | 207 | 0.0 | 0.0 | 0.00 | 0.00 | 0.00 | 96 | 1011.3 |
| 20260905104005 | 15 | 207 | 0.0 | 0.0 | 0.00 | 0.00 | 0.00 | 96 | 1011.3 |
| 20260905103505 | 16 | 207 | 0.0 | 0.0 | 0.00 | 0.00 | 0.00 | 96 | 1011.3 |
| 20260905103005 | 16 | 207 | 0.0 | 0.0 | 0.00 | 0.00 | 0.00 | 96 | 1011.3 |
| 20260905102504 | 16 | 207 | 0.0 | 0.0 | 0.00 | 0.00 | 0.00 | 96 | 1011.2 |
| 20260905102004 | 16 | 207 | 0.0 | 0.0 | 0.00 | 0.00 | 0.00 | 96 | 1011.2 |
| 20260905101507 | 16 | 207 | 0.0 | 0.0 | 0.00 | 0.00 | 0.00 | 96 | 1011.2 |
| 20260905101003 | 16 | 207 | 0.0 | 0.0 | 0.00 | 0.00 | 0.00 | 96 | 1011.3 |
| 20260905100503 | 16 | 207 | 0.0 | 0.0 | 0.00 | 0.00 | 0.00 | 96 | 1011.3 |
| 20260905100004 | 16 | 207 | 0.0 | 0.0 | 0.00 | 0.00 | 0.00 | 96 | 1011.3 |
| 20260905095503 | 16 | 207 | 0.0 | 0.0 | 0.00 | 0.00 | 0.00 | 96 | 1011.3 |
| 20260905095005 | 16 | 207 | 0.0 | 0.0 | 0.00 | 0.00 | 0.00 | 96 | 1011.3 |
| 20260905094503 | 16 | 207 | 0.0 | 0.0 | 0.00 | 0.00 | 0.00 | 96 | 1011.3 |
| 20260905094004 | 16 | 207 | 0.0 | 0.0 | 0.00 | 0.00 | 0.00 | 96 | 1011.3 |
| 20260905093502 | 16 | 207 | 0.0 | 0.0 | 0.00 | 0.00 | 0.00 | 96 | 1011.3 |
| 20260905093002 | 16 | 207 | 0.0 | 0.0 | 0.00 | 0.00 | 0.00 | 96 | 1011.3 |
| 20260905092501 | 16 | 207 | 0.0 | 0.0 | 0.00 | 0.00 | 0.00 | 97 | 1011.3 |
| 20260905092001 | 16 | 178 | 0.0 | 0.0 | 0.00 | 0.00 | 0.00 | 97 | 1011.3 |
| 20260905091503 | 16 | 178 | 0.0 | 0.0 | 0.00 | 0.00 | 0.00 | 96 | 1011.3 |
| 20260905091003 | 16 | 188 | 0.0 | 0.0 | 0.00 | 0.00 | 0.00 | 96 | 1011.3 |
| 20260905090600 | 16 | 188 | 0.0 | 0.0 | 0.00 | 0.00 | 0.00 | 96 | 1011.3 |
| 20260905090100 | 16 | 171 | 0.0 | 0.0 | 0.00 | 0.00 | 0.00 | 96 | 1011.3 |
| 20260905085602 | 16 | 171 | 0.0 | 0.0 | 0.00 | 0.00 | 0.00 | 97 | 1011.4 |
| 20260905085058 | 16 | 171 | 0.0 | 0.0 | 0.00 | 0.00 | 0.00 | 96 | 1011.4 |
| 20260905084601 | 16 | 174 | 0.0 | 0.0 | 0.00 | 0.00 | 0.00 | 96 | 1011.4 |
| 20260905084058 | 16 | 174 | 0.0 | 0.0 | 0.00 | 0.00 | 0.00 | 96 | 1011.4 |
| 20260905083558 | 16 | 174 | 0.0 | 0.0 | 0.00 | 0.00 | 0.00 | 96 | 1011.4 |
| 20260905083059 | 16 | 174 | 0.0 | 0.0 | 0.00 | 0.00 | 0.00 | 96 | 1011.4 |
| 20260905082557 | 16 | 174 | 0.0 | 0.0 | 0.00 | 0.00 | 0.00 | 96 | 1011.8 |
| 20260905082057 | 16 | 174 | 0.0 | 0.0 | 0.00 | 0.00 | 0.00 | 96 | 1011.8 |
| 20260905081559 | 16 | 174 | 0.0 | 0.0 | 0.00 | 0.00 | 0.00 | 96 | 1011.8 |
| 20260905081058 | 16 | 174 | 0.0 | 0.0 | 0.00 | 0.00 | 0.00 | 96 | 1011.9 |
| 20260905080556 | 16 | 174 | 0.0 | 0.0 | 0.00 | 0.00 | 0.00 | 96 | 1011.9 |
| 20260905080104 | 16 | 174 | 0.0 | 0.0 | 0.00 | 0.00 | 0.00 | 96 | 1011.9 |
| 20260905075557 | 16 | 174 | 0.0 | 0.0 | 0.00 | 0.00 | 0.00 | 96 | 1011.9 |
| 20260905075056 | 16 | 174 | 0.0 | 0.0 | 0.00 | 0.00 | 0.00 | 96 | 1011.9 |
| 20260905074556 | 16 | 174 | 0.0 | 0.0 | 0.00 | 0.00 | 0.00 | 96 | 1011.9 |
| 20260905074055 | 15 | 174 | 0.0 | 0.0 | 0.00 | 0.00 | 0.00 | 95 | 1011.7 |
| 20260905073559 | 16 | 151 | 0.0 | 0.0 | 0.00 | 0.00 | 0.00 | 96 | 1011.7 |
| 20260905073055 | 16 | 151 | 0.0 | 0.0 | 0.00 | 0.00 | 0.00 | 96 | 1011.7 |
| 20260905072554 | 16 | 151 | 0.0 | 0.0 | 0.00 | 0.00 | 0.00 | 95 | 1011.8 |
| 20260905072053 | 16 | 151 | 0.0 | 0.0 | 0.00 | 0.00 | 0.00 | 95 | 1011.8 |
| 20260905071553 | 16 | 151 | 0.0 | 0.0 | 0.00 | 0.00 | 0.00 | 95 | 1011.8 |
| 20260905071051 | 16 | 288 | 0.0 | 0.0 | 0.00 | 0.00 | 0.00 | 95 | 1011.5 |
| 20260905070551 | 16 | 288 | 0.0 | 0.0 | 0.00 | 0.00 | 0.00 | 95 | 1011.5 |
| 20260905070052 | 16 | 288 | 0.0 | 0.0 | 0.00 | 0.00 | 0.00 | 95 | 1011.5 |
| 20260905065552 | 16 | 288 | 1.6 | 0.0 | 0.00 | 0.00 | 0.03 | 96 | 1011.4 |
| 20260905065050 | 16 | 288 | 1.6 | 0.0 | 0.00 | 0.00 | 0.03 | 96 | 1011.4 |